GFSNGP_prec_sndepth_132.txt.gz
Snowfall_Accumulation
0.1 0.0 0.0 0.0 0.4 0.4 3.2 1.3 3.1 0.6 0.3 0.2 0.3 0.4 0.0 0.0 0.0 0.0 0.1 0.5 0.5 0.3 0.2 0.0 0.0 0.0 0.0 0.0 0.0 0.0 0.0 0.0 0.0 0.0 0.0 0.0 0.0 0.0 0.0 0.0 0.0 0.0 0.0 0.0
0.1 0.0 0.0 0.0 0.4 0.7 0.6 0.6 0.0 0.0 0.0 0.3 0.3 0.3 0.0 0.0 0.0 0.0 0.2 0.7 0.8 0.4 0.1 0.0 0.0 0.0 0.0 0.0 0.0 0.0 0.0 0.0 0.0 0.0 0.0 0.0 0.0 0.0 0.0 0.0 0.0 0.0 0.0 0.0
0.1 0.0 0.0 2.9 1.0 0.5 4.3 0.7 1.1 2.8 1.9 0.5 0.5 0.4 0.3 0.2 0.1 0.1 0.0 0.8 1.4 1.1 1.2 0.1 0.0 0.0 0.0 0.0 0.0 0.0 0.0 0.0 0.0 0.0 0.0 0.0 0.0 0.0 0.0 0.0 0.0 0.0 0.0 0.0
0.4 0.1 3.2 1.3 0.0 0.0 0.5 0.8 0.5 0.5 1.5 0.8 0.4 0.7 0.7 0.0 0.1 0.0 0.0 0.0 0.1 0.2 0.1 0.1 0.0 0.0 0.0 0.0 0.0 0.0 0.0 0.0 0.0 0.0 0.0 0.0 0.0 0.0 0.0 0.0 0.0 0.0 0.0 0.0
1.9 0.4 0.1 0.6 0.0 0.0 0.2 1.0 0.1 1.0 1.1 0.4 0.1 0.7 0.3 0.0 0.0 0.1 0.0 0.0 0.0 0.0 0.0 0.0 0.0 0.0 0.0 0.0 0.0 0.0 0.0 0.0 0.0 0.0 0.0 0.0 0.0 0.0 0.0 0.0 0.0 0.0 0.0 0.0
0.7 1.2 2.8 1.0 0.0 0.0 0.0 1.4 0.1 0.7 0.5 0.5 0.0 0.6 0.6 0.1 0.0 0.0 0.0 0.0 0.0 0.0 0.0 0.0 0.0 0.0 0.0 0.0 0.0 0.0 0.0 0.0 0.0 0.0 0.0 0.0 0.0 0.0 0.0 0.0 0.0 0.0 0.0 0.0
0.6 1.4 1.7 0.1 0.0 0.0 1.4 1.1 0.2 1.2 0.6 0.4 3.3 0.8 0.4 0.2 0.1 0.0 0.0 0.0 0.0 0.0 0.0 0.0 0.0 0.0 0.0 0.0 0.0 0.0 0.0 0.0 0.0 0.0 0.0 0.0 0.0 0.0 0.0 0.0 0.0 0.0 0.1 0.3
0.9 1.1 1.4 0.0 0.0 0.5 0.5 0.0 0.2 0.5 0.3 0.3 0.3 0.3 0.2 0.0 0.0 0.0 0.0 0.0 0.0 0.0 0.0 0.0 0.0 0.0 0.0 0.0 0.0 0.0 0.0 0.0 0.0 0.1 0.1 0.0 0.0 0.0 0.0 0.0 0.1 0.2 0.5 1.2
1.1 1.9 0.2 0.0 0.1 0.0 0.1 0.2 0.2 0.3 0.1 0.1 0.4 0.5 0.3 0.1 0.0 0.0 0.0 0.0 0.0 0.0 0.0 0.0 0.0 0.0 0.0 0.0 0.0 0.0 0.0 0.0 0.0 0.0 0.2 0.8 0.6 0.3 0.4 0.2 1.2 3.0 3.9 4.0
0.2 0.3 0.0 0.0 0.0 0.0 0.0 0.0 0.0 0.0 0.0 0.1 0.5 0.5 0.4 0.1 0.0 0.0 0.0 0.0 0.0 0.0 0.0 0.0 0.0 0.0 0.0 0.0 0.0 0.0 0.0 0.0 0.0 0.2 0.4 0.7 1.5 1.5 1.8 2.2 2.8 5.3 6.2 8.7
0.2 0.0 0.0 0.0 0.1 0.0 0.0 0.0 0.0 0.1 0.0 0.1 0.2 0.5 0.6 0.2 0.1 0.0 0.0 0.0 0.0 0.0 0.0 0.1 0.0 0.0 0.0 0.0 0.0 0.0 0.1 0.1 0.2 0.4 0.2 0.9 1.6 3.2 4.0 5.9 5.6 8.5 10.3 10.6
5.5 0.4 0.6 0.1 0.1 0.0 0.0 0.1 0.1 0.1 0.1 0.0 0.1 0.1 0.1 0.4 0.1 0.0 0.0 0.0 0.0 0.0 0.0 0.1 0.0 0.0 0.0 0.0 0.0 0.1 0.2 0.4 1.0 0.7 1.2 1.3 2.3 6.5 nan nan nan nan nan 9.7
3.5 0.3 0.3 0.4 0.2 0.1 0.3 0.4 0.4 1.1 0.5 0.3 0.3 0.1 0.2 0.1 0.7 nan 0.4 0.5 0.3 0.6 0.3 0.2 0.2 0.2 0.2 0.2 0.1 0.5 0.8 0.6 2.2 1.6 2.5 3.0 3.8 5.1 9.5 12.9 nan nan nan nan
0.3 0.9 1.6 1.1 3.6 0.6 0.2 0.2 0.5 0.1 0.0 0.1 0.2 0.2 0.1 0.6 0.9 2.7 5.2 4.5 5.1 4.4 5.0 4.3 3.0 4.3 3.1 1.6 1.7 2.2 2.1 0.9 3.7 5.0 5.7 6.5 6.6 7.3 6.5 7.3 10.5 11.8 nan nan
0.0 0.0 0.4 0.4 0.3 0.3 0.1 0.0 0.0 0.0 0.0 0.0 0.0 0.1 0.1 0.2 0.3 0.9 2.4 6.4 8.4 9.5 10.2 9.0 8.5 10.5 7.9 6.5 6.4 6.3 6.2 8.7 7.8 7.3 7.3 6.7 7.1 7.5 7.2 7.9 8.0 8.2 6.4 3.8
0.0 0.0 0.0 0.0 0.0 0.0 0.1 0.1 0.0 0.0 0.0 0.1 0.1 0.2 0.2 0.2 0.2 0.2 0.2 0.2 2.3 5.6 8.4 12.6 11.6 14.5 11.4 8.1 8.2 7.1 6.4 2.6 3.3 4.5 4.7 5.4 5.9 5.8 5.2 5.0 4.8 5.2 5.3 5.8
0.0 0.0 0.0 0.0 0.0 0.0 0.0 0.0 0.1 0.1 0.0 0.2 0.1 0.1 0.1 0.2 0.4 1.1 3.0 4.3 6.3 8.8 10.3 10.2 14.3 10.7 9.2 5.7 4.1 4.7 4.2 3.0 0.5 2.6 3.0 3.2 3.7 4.1 4.2 5.8 6.6 5.6 8.7 11.0
0.0 0.0 0.0 0.0 0.0 0.0 0.0 0.0 0.0 0.0 0.1 0.3 1.2 4.8 7.5 7.0 6.7 9.7 11.8 11.3 10.7 11.3 8.9 7.7 4.9 3.2 2.8 1.4 0.7 1.5 2.0 1.8 1.8 2.7 2.6 4.0 3.2 2.4 3.9 4.1 3.4 4.1 5.6 4.9
0.0 0.0 0.0 0.0 0.0 0.1 0.1 0.4 0.7 1.6 5.1 4.9 6.9 7.1 7.3 7.8 4.8 5.5 6.5 9.9 10.3 3.5 6.5 1.8 0.3 0.4 0.7 1.1 0.5 1.6 2.6 3.9 2.3 1.6 2.1 5.7 6.0 2.7 5.3 7.2 6.3 7.9 4.4 5.3
0.0 0.0 0.0 0.1 0.1 0.5 2.0 2.7 2.8 3.1 3.5 3.2 7.8 8.7 7.1 10.7 9.9 10.9 6.7 7.1 6.3 5.6 0.8 0.7 0.8 0.9 0.9 0.9 1.7 1.8 2.8 5.1 3.3 5.3 6.8 3.6 8.8 13.2 9.4 7.0 5.6 8.2 15.2 12.0
1.1 0.6 0.7 1.4 2.4 3.1 4.3 4.5 3.0 1.9 4.5 7.4 8.8 11.3 11.1 9.7 9.6 10.7 5.9 2.9 4.1 1.3 0.7 0.5 1.3 1.8 1.2 1.3 1.2 3.4 6.3 9.4 9.5 6.3 6.2 12.5 15.9 11.4 13.1 14.8 13.3 15.9 18.4 14.6
4.0 4.5 5.8 4.4 3.3 4.9 4.6 4.1 2.8 6.2 7.3 11.2 16.1 17.2 12.9 8.6 9.2 8.7 9.7 4.8 4.2 2.4 2.2 2.4 2.0 3.6 3.0 4.9 2.4 8.0 4.1 4.8 7.0 7.1 7.6 11.4 12.6 18.9 20.3 17.5 17.3 19.1 18.6 19.1
4.8 4.1 6.0 7.0 7.0 7.0 7.2 7.6 11.1 9.8 13.8 13.1 14.8 11.5 8.1 7.2 6.7 6.7 7.2 3.3 3.2 4.4 2.7 4.8 5.2 5.5 5.8 9.6 9.6 11.4 11.3 11.1 11.0 10.2 11.0 16.6 15.7 25.4 15.9 15.4 16.6 16.8 22.4 15.4
5.0 4.6 5.2 5.2 4.9 3.7 6.1 8.2 6.5 7.9 12.3 10.1 11.1 13.5 6.9 10.0 12.8 5.0 4.5 6.2 6.4 15.7 13.5 8.8 9.6 6.2 6.5 13.2 13.6 15.1 13.7 15.3 15.8 17.5 9.1 9.0 23.5 18.9 15.0 22.4 14.5 17.9 18.4 15.7
3.5 4.4 4.2 4.2 4.4 5.8 3.8 4.7 4.8 6.5 6.0 6.0 5.8 5.1 3.5 4.3 9.1 6.7 7.7 7.5 7.2 6.3 9.2 7.1 6.8 7.4 17.3 18.2 17.0 16.7 17.2 15.8 17.0 19.4 14.9 20.7 18.1 25.9 22.6 18.0 22.3 22.6 23.2 19.8
2.7 3.8 4.4 4.2 3.9 3.5 3.5 4.1 4.6 6.3 5.7 10.2 7.5 14.4 12.0 7.9 7.2 6.9 8.4 8.0 6.4 6.8 6.4 14.2 18.6 18.5 17.6 13.2 15.2 15.6 12.2 8.9 13.3 13.0 16.2 15.9 15.3 12.8 15.7 14.2 19.5 24.2 30.1 32.2
4.1 1.8 3.5 3.4 4.0 4.3 4.2 5.0 6.2 7.8 6.6 11.6 10.3 9.8 6.6 10.0 11.8 7.8 9.0 13.2 12.7 13.9 14.3 16.6 14.2 10.4 9.3 14.5 12.7 12.0 11.8 12.2 10.5 10.2 19.0 23.0 21.7 28.4 26.2 25.8 28.5 29.3 26.8 25.5

GFSNGP_prec_sndepth_135.txt.gz
Snowfall_Accumulation
0.1 0.0 0.0 0.0 0.4 0.4 3.2 1.3 3.4 0.6 0.3 0.1 0.5 0.7 0.4 0.3 0.0 0.0 0.1 0.7 1.6 2.1 2.3 0.8 0.4 0.3 0.0 0.0 0.0 0.0 0.0 0.0 0.0 0.0 0.0 0.0 0.0 0.0 0.0 0.0 0.0 0.0 0.0 0.0
0.1 0.0 0.0 0.0 0.4 0.6 0.5 0.5 0.0 0.0 0.0 0.3 0.3 0.3 0.1 0.1 0.0 0.0 0.2 0.7 1.3 1.6 1.9 0.6 0.2 0.1 0.0 0.0 0.0 0.0 0.0 0.0 0.0 0.0 0.0 0.0 0.0 0.0 0.0 0.0 0.0 0.0 0.0 0.0
0.1 0.0 0.0 2.9 1.0 0.5 4.3 0.7 1.1 2.8 1.8 0.4 0.4 0.3 0.3 0.2 0.1 0.1 0.0 0.6 1.3 1.9 1.9 1.0 0.0 0.0 0.0 0.0 0.0 0.0 0.0 0.0 0.0 0.0 0.0 0.0 0.0 0.0 0.0 0.0 0.0 0.0 0.0 0.0
0.4 0.1 3.2 1.3 0.0 0.0 0.5 0.7 0.5 0.4 1.3 0.7 0.4 0.5 0.7 0.0 0.1 0.0 0.0 0.0 0.1 0.2 0.2 0.1 0.2 0.0 0.0 0.0 0.0 0.0 0.0 0.0 0.0 0.0 0.0 0.0 0.0 0.0 0.0 0.0 0.0 0.0 0.0 0.0
1.9 0.4 0.1 0.6 0.0 0.0 0.2 1.0 0.1 0.9 0.9 0.3 0.0 0.5 0.2 0.0 0.0 0.1 0.0 0.0 0.0 0.0 0.0 0.0 0.0 0.0 0.0 0.0 0.0 0.0 0.0 0.0 0.0 0.0 0.0 0.0 0.0 0.0 0.0 0.0 0.0 0.0 0.0 0.0
0.8 1.2 2.8 0.9 0.0 0.0 0.0 1.4 0.1 0.6 0.5 0.4 0.0 0.6 0.6 0.1 0.0 0.0 0.0 0.0 0.0 0.0 0.0 0.0 0.0 0.0 0.0 0.0 0.0 0.0 0.0 0.0 0.0 0.0 0.0 0.0 0.0 0.0 0.0 0.0 0.0 0.0 0.0 0.0
0.6 1.4 1.7 0.1 0.0 0.0 1.4 1.1 0.1 1.1 0.5 0.3 3.5 0.9 0.5 0.2 0.0 0.0 0.0 0.0 0.0 0.0 0.0 0.0 0.0 0.0 0.0 0.0 0.0 0.0 0.0 0.0 0.0 0.0 0.0 0.0 0.0 0.0 0.0 0.0 0.0 0.0 0.1 0.2
0.9 1.1 1.4 0.0 0.0 0.5 0.5 0.0 0.1 0.4 0.2 0.2 0.3 0.2 0.2 0.1 0.0 0.0 0.0 0.0 0.0 0.0 0.0 0.0 0.0 0.0 0.0 0.0 0.0 0.0 0.0 0.0 0.0 0.1 0.1 0.0 0.0 0.0 0.0 0.0 0.1 0.2 0.4 1.2
1.1 1.9 0.2 0.0 0.1 0.0 0.1 0.1 0.2 0.3 0.1 0.1 0.3 0.4 0.3 0.1 0.0 0.0 0.0 0.0 0.0 0.0 0.0 0.0 0.0 0.0 0.0 0.0 0.0 0.0 0.0 0.0 0.0 0.0 0.2 0.7 0.6 0.3 0.4 0.2 1.2 2.9 3.9 4.0
0.2 0.3 0.0 0.0 0.0 0.0 0.0 0.0 0.0 0.0 0.0 0.1 0.4 0.5 0.4 0.2 0.1 0.1 0.1 0.0 0.0 0.0 0.0 0.0 0.0 0.0 0.0 0.0 0.0 0.0 0.0 0.0 0.0 0.2 0.3 0.6 1.4 1.5 1.8 2.2 2.7 5.3 6.2 8.7
0.2 0.0 0.0 0.0 0.1 0.0 0.0 0.0 0.0 0.1 0.0 0.1 0.2 0.5 0.6 0.3 0.2 0.1 0.1 0.1 0.0 0.0 0.0 0.1 0.0 0.0 0.0 0.0 0.0 0.0 0.1 0.1 0.2 0.3 0.2 0.9 1.6 3.2 4.0 6.0 5.7 8.5 10.3 10.6
5.5 0.4 0.5 0.1 0.1 0.0 0.0 0.0 0.1 0.1 0.1 0.0 0.1 0.2 0.1 0.4 0.1 0.1 0.1 0.1 0.1 0.0 0.0 0.1 0.0 0.0 0.0 0.0 0.0 0.1 0.2 0.4 1.0 0.7 1.2 1.2 2.3 6.3 nan nan nan nan nan 9.6
3.5 0.3 0.3 0.3 0.2 0.1 0.3 0.4 0.4 1.1 0.5 0.3 0.4 0.1 0.2 0.1 0.7 nan 0.4 0.5 0.4 0.7 0.3 0.2 0.2 0.2 0.2 0.2 0.1 0.5 0.8 0.6 2.2 1.6 2.5 2.9 3.7 5.1 9.5 12.8 nan nan nan nan
0.3 0.9 1.5 1.1 3.6 0.6 0.2 0.2 0.4 0.1 0.0 0.1 0.2 0.2 0.2 0.6 0.9 2.7 5.2 4.5 5.1 4.4 5.0 4.3 2.9 4.3 3.2 1.7 1.7 2.2 2.1 0.9 3.6 4.9 5.7 6.5 6.5 7.3 6.4 7.2 10.4 11.7 nan nan
0.0 0.0 0.4 0.4 0.3 0.3 0.1 0.0 0.0 0.0 0.0 0.0 0.0 0.2 0.1 0.2 0.4 0.9 2.5 6.4 8.4 9.5 10.2 9.0 8.5 10.5 7.9 6.5 6.4 6.3 6.2 8.6 7.7 7.3 7.3 6.7 7.0 7.4 7.1 7.8 8.0 8.1 6.4 3.7
0.0 0.0 0.0 0.0 0.0 0.0 0.1 0.1 0.0 0.0 0.0 0.1 0.1 0.2 0.3 0.2 0.2 0.2 0.2 0.2 2.3 5.6 8.4 12.6 11.6 14.5 11.5 8.1 8.2 7.1 6.4 2.6 3.3 4.4 4.6 5.3 5.8 5.7 5.1 5.0 4.7 5.2 5.3 5.8
0.0 0.0 0.0 0.0 0.0 0.0 0.0 0.0 0.1 0.1 0.0 0.2 0.2 0.1 0.1 0.2 0.4 1.1 3.0 4.3 6.3 8.7 10.3 10.2 14.3 10.7 9.2 5.7 4.1 4.8 4.1 3.0 0.5 2.6 2.9 3.2 3.7 4.1 4.1 5.8 6.5 5.6 8.6 10.9
0.0 0.0 0.0 0.0 0.0 0.0 0.0 0.0 0.0 0.0 0.1 0.4 1.2 4.8 7.5 7.1 6.7 9.7 11.7 11.2 10.7 11.3 8.9 7.6 5.0 3.2 2.8 1.4 0.8 1.6 2.0 1.8 1.8 2.7 2.6 4.0 3.2 2.4 3.9 4.1 3.4 4.1 5.6 4.9
0.0 0.0 0.0 0.0 0.0 0.1 0.1 0.4 0.7 1.6 5.1 5.0 6.9 7.1 7.3 7.8 4.8 5.4 6.4 9.9 10.2 3.5 6.5 1.8 0.3 0.5 0.7 1.1 0.5 1.6 2.7 4.0 2.4 1.6 2.1 5.7 6.0 2.7 5.3 7.2 6.3 7.9 4.4 5.3
0.0 0.0 0.0 0.1 0.1 0.5 2.0 2.7 2.8 3.1 3.5 3.2 7.8 8.7 7.1 10.7 9.9 10.9 6.7 7.1 6.4 5.8 0.9 0.7 0.8 0.9 1.0 0.9 1.7 1.8 2.8 5.1 3.3 5.4 6.8 3.7 8.8 13.2 9.4 7.0 5.6 8.2 15.1 12.0
1.1 0.6 0.7 1.3 2.4 3.1 4.3 4.5 3.0 1.9 4.6 7.4 8.8 11.3 11.1 9.7 9.5 10.7 5.9 2.9 4.1 1.3 0.7 0.5 1.3 1.8 1.3 1.4 1.2 3.4 6.3 9.4 9.5 6.4 6.3 12.5 15.9 11.4 13.1 14.7 13.3 15.8 18.3 14.6
4.0 4.5 5.8 4.4 3.3 4.9 4.6 4.1 2.8 6.2 7.3 11.2 16.1 17.2 12.9 8.6 9.2 8.7 9.8 4.9 4.2 2.4 2.2 2.3 2.0 3.7 3.0 4.9 2.4 8.1 4.1 4.8 7.0 7.2 7.7 11.4 12.6 18.8 20.2 17.4 17.3 19.0 18.6 19.1
4.8 4.1 6.0 7.0 7.0 6.9 7.2 7.6 11.1 9.8 13.8 13.1 14.8 11.5 8.1 7.2 6.8 6.7 7.2 3.3 3.2 4.4 2.7 4.8 5.2 5.5 5.9 9.6 9.6 11.4 11.3 11.2 11.1 10.3 11.1 16.6 15.6 25.3 15.8 15.3 16.5 16.8 22.3 15.3
5.0 4.6 5.2 5.2 4.9 3.7 6.1 8.2 6.5 7.8 12.3 10.1 11.1 13.5 6.9 10.0 12.8 5.1 4.5 6.2 6.4 15.6 13.5 8.8 9.6 6.2 6.6 13.2 13.6 15.1 13.7 15.3 15.9 17.4 9.2 9.0 23.4 18.8 15.0 22.3 14.5 17.8 18.4 15.6
3.5 4.4 4.2 4.2 4.4 5.8 3.8 4.8 4.8 6.5 6.0 6.0 5.8 5.1 3.6 4.3 9.1 6.8 7.7 7.5 7.2 6.3 9.2 7.1 6.8 7.4 17.2 18.2 17.0 16.7 17.1 15.7 16.9 19.4 14.9 20.6 18.0 25.8 22.6 18.0 22.2 22.5 23.1 19.7
2.7 3.8 4.4 4.2 3.9 3.5 3.5 4.1 4.6 6.4 5.8 10.2 7.5 14.4 12.0 7.9 7.2 6.9 8.4 8.0 6.4 6.8 6.4 14.2 18.6 18.5 17.6 13.2 15.2 15.6 12.2 8.9 13.3 12.9 16.1 15.9 15.3 12.8 15.7 14.2 19.5 24.2 30.0 32.0
4.1 1.8 3.5 3.4 4.0 4.3 4.2 5.0 6.2 7.8 6.6 11.6 10.3 9.8 6.6 10.0 11.8 7.8 9.0 13.2 12.7 13.9 14.3 16.6 14.2 10.4 9.3 14.5 12.7 12.0 11.8 12.2 10.5 10.2 18.9 22.9 21.6 28.3 26.2 25.8 28.4 29.2 26.7 25.4

GFSNGP_prec_sndepth_138.txt.gz
Snowfall_Accumulation
0.1 0.0 0.0 0.0 0.2 0.2 2.8 0.7 2.5 0.3 0.1 0.1 0.2 0.5 0.3 0.2 0.0 0.0 0.1 0.4 1.1 2.6 3.3 2.6 1.1 0.7 0.1 0.0 0.0 0.0 0.0 0.0 0.0 0.0 0.0 0.0 0.0 0.0 0.0 0.0 0.0 0.0 0.0 0.0
0.1 0.0 0.0 0.0 0.2 0.4 0.3 0.2 0.0 0.0 0.0 0.1 0.1 0.2 0.1 0.0 0.0 0.0 0.1 0.4 0.8 1.7 2.3 2.1 0.8 0.2 0.2 0.2 0.1 0.1 0.1 0.0 0.0 0.0 0.0 0.0 0.0 0.0 0.0 0.0 0.0 0.0 0.0 0.0
0.0 0.0 0.0 2.4 0.6 0.3 3.8 0.3 0.5 2.2 1.0 0.3 0.2 0.2 0.2 0.2 0.1 0.1 0.0 0.3 0.8 1.5 1.9 1.3 0.7 0.2 0.1 0.0 0.0 0.0 0.3 0.1 0.0 0.1 0.0 0.0 0.0 0.0 0.0 0.0 0.0 0.0 0.0 0.0
0.4 0.1 2.9 0.9 0.0 0.0 0.3 0.4 0.3 0.3 1.0 0.5 0.2 0.3 0.5 0.0 0.1 0.0 0.0 0.0 0.0 0.1 0.1 0.1 0.2 0.1 0.1 0.0 0.0 0.0 0.0 0.0 0.0 0.0 0.0 0.0 0.0 0.0 0.0 0.0 0.0 0.0 0.0 0.0
1.7 0.4 0.0 0.3 0.0 0.0 0.1 0.5 0.0 0.6 0.6 0.2 0.0 0.2 0.2 0.0 0.0 0.0 0.0 0.0 0.0 0.0 0.0 0.0 0.0 0.0 0.0 0.1 0.0 0.0 0.0 0.0 0.0 0.0 0.0 0.0 0.0 0.0 0.0 0.0 0.0 0.0 0.0 0.0
0.7 0.8 2.6 0.5 0.0 0.0 0.0 1.2 0.0 0.4 0.3 0.3 0.0 0.5 0.5 0.0 0.0 0.0 0.0 0.0 0.0 0.0 0.0 0.0 0.0 0.0 0.0 0.0 0.0 0.0 0.0 0.0 0.0 0.0 0.0 0.0 0.0 0.0 0.0 0.0 0.0 0.0 0.0 0.0
0.5 1.2 1.3 0.1 0.0 0.0 1.1 0.7 0.1 0.6 0.3 0.2 3.4 0.8 0.3 0.1 0.0 0.0 0.0 0.0 0.0 0.0 0.0 0.0 0.0 0.0 0.0 0.0 0.0 0.0 0.0 0.0 0.0 0.0 0.0 0.0 0.0 0.0 0.0 0.0 0.0 0.0 0.1 0.2
0.9 0.9 1.3 0.0 0.0 0.3 0.3 0.0 0.1 0.2 0.2 0.2 0.2 0.2 0.1 0.0 0.0 0.0 0.0 0.0 0.0 0.0 0.0 0.0 0.0 0.0 0.0 0.0 0.0 0.0 0.0 0.0 0.0 0.1 0.1 0.0 0.0 0.0 0.0 0.0 0.1 0.1 0.3 0.9
0.7 1.6 0.1 0.0 0.0 0.0 0.0 0.1 0.1 0.1 0.1 0.1 0.2 0.3 0.2 0.1 0.0 0.0 0.0 0.0 0.0 0.0 0.0 0.0 0.0 0.0 0.0 0.0 0.0 0.0 0.0 0.0 0.0 0.0 0.1 0.5 0.4 0.2 0.3 0.1 1.1 2.5 3.4 3.7
0.1 0.2 0.0 0.0 0.0 0.0 0.0 0.0 0.0 0.0 0.0 0.1 0.3 0.3 0.2 0.1 0.0 0.0 0.0 0.0 0.0 0.0 0.0 0.0 0.0 0.0 0.0 0.0 0.0 0.0 0.0 0.0 0.0 0.1 0.2 0.4 1.2 1.3 1.7 2.1 2.6 5.1 6.0 8.4
0.1 0.0 0.0 0.0 0.0 0.0 0.0 0.0 0.0 0.0 0.0 0.1 0.1 0.3 0.3 0.2 0.1 0.1 0.1 0.1 0.0 0.0 0.0 0.0 0.0 0.0 0.0 0.0 0.0 0.0 0.0 0.1 0.1 0.3 0.1 0.6 1.3 3.0 3.9 6.1 5.6 8.0 9.9 10.4
4.6 0.2 0.3 0.1 0.1 0.0 0.0 0.0 0.1 0.1 0.1 0.0 0.1 0.1 0.0 0.3 0.1 0.0 0.1 0.0 0.1 0.1 0.0 0.0 0.0 0.0 0.0 0.0 0.0 0.0 0.1 0.4 0.9 0.6 1.0 1.0 1.9 5.4 nan nan nan nan nan 9.2
2.8 0.2 0.1 0.2 0.1 0.1 0.2 0.2 0.2 0.9 0.3 0.2 0.3 0.1 0.1 0.1 0.5 nan 0.3 0.3 0.3 0.7 0.5 0.2 0.1 0.2 0.2 0.1 0.1 0.3 0.5 0.3 1.8 1.3 2.1 2.6 3.1 4.5 8.9 11.5 nan nan nan nan
0.2 0.6 1.3 0.8 3.2 0.4 0.1 0.2 0.3 0.1 0.0 0.1 0.1 0.2 0.1 0.5 0.7 2.7 5.2 4.4 5.1 4.4 5.0 4.4 3.0 4.3 3.1 1.4 1.5 2.1 1.7 0.7 3.2 4.4 5.0 5.8 5.9 6.6 5.8 6.7 10.0 11.6 nan nan
0.0 0.0 0.2 0.3 0.2 0.2 0.1 0.0 0.0 0.0 0.0 0.0 0.0 0.1 0.1 0.2 0.3 0.8 2.4 6.4 8.3 9.5 10.2 8.9 8.6 10.6 7.9 6.6 6.2 5.9 5.4 7.7 7.0 6.5 6.6 5.9 6.0 6.3 6.0 6.6 7.1 7.3 5.3 3.2
0.0 0.0 0.0 0.0 0.0 0.0 0.1 0.1 0.0 0.0 0.0 0.1 0.0 0.2 0.2 0.1 0.2 0.2 0.2 0.2 2.2 5.5 8.3 12.6 11.5 14.4 11.5 8.1 7.8 6.4 5.7 2.4 2.7 3.7 3.9 4.5 5.0 4.9 4.3 4.2 4.0 4.5 4.9 5.6
0.0 0.0 0.0 0.0 0.0 0.0 0.0 0.0 0.0 0.0 0.0 0.1 0.1 0.0 0.1 0.2 0.4 1.0 2.9 4.2 6.2 8.7 10.3 10.2 14.2 10.7 9.1 5.6 3.9 4.4 3.7 2.5 0.4 2.2 2.5 2.7 3.2 3.5 3.5 5.1 5.9 5.1 8.4 10.8
0.0 0.0 0.0 0.0 0.0 0.0 0.0 0.0 0.0 0.0 0.1 0.3 1.2 4.9 7.5 7.1 6.7 9.6 11.6 11.1 10.6 11.2 8.8 7.6 4.9 3.2 2.8 1.2 0.6 1.4 1.9 1.7 1.6 2.5 2.4 3.7 2.8 2.1 3.5 3.6 3.0 3.7 5.1 4.6
0.0 0.0 0.0 0.0 0.0 0.0 0.1 0.4 0.7 1.6 5.1 4.9 6.9 7.0 7.3 7.8 4.8 5.4 6.4 9.8 10.2 3.4 6.4 1.7 0.4 0.4 0.6 1.0 0.4 1.4 2.4 3.7 2.3 1.6 2.0 5.7 5.9 2.5 5.0 6.8 5.8 7.4 4.0 5.1
0.0 0.0 0.0 0.1 0.1 0.4 2.0 2.7 2.8 3.0 3.5 3.1 7.8 8.7 7.0 10.7 9.8 10.8 6.7 7.0 6.3 5.8 0.9 0.7 0.7 0.8 0.9 0.7 1.6 1.7 2.6 4.8 3.1 5.3 6.8 3.6 8.7 13.1 9.3 7.0 5.5 7.9 14.9 11.8
1.1 0.5 0.7 1.3 2.3 3.1 4.3 4.5 3.0 1.9 4.5 7.4 8.7 11.2 11.1 9.7 9.5 10.6 5.8 2.8 4.0 1.3 0.6 0.4 1.2 1.7 1.1 1.2 1.1 3.3 6.2 9.2 9.4 6.3 6.3 12.5 15.8 11.3 13.0 14.6 13.2 15.7 18.2 14.4
4.0 4.5 5.8 4.4 3.2 4.9 4.6 4.1 2.7 6.2 7.2 11.2 16.1 17.1 12.9 8.5 9.1 8.6 9.7 4.8 4.1 2.4 2.2 2.3 2.0 3.7 3.0 4.9 2.4 8.1 4.1 4.7 7.0 7.1 7.6 11.3 12.5 18.7 20.0 17.3 17.1 18.9 18.5 19.0
4.7 4.0 6.0 6.9 7.0 6.9 7.1 7.5 11.0 9.7 13.7 13.0 14.7 11.5 8.0 7.1 6.6 6.6 7.1 3.0 3.0 4.3 2.6 4.7 5.2 5.5 5.9 9.5 9.6 11.4 11.3 11.2 11.1 10.2 11.0 16.6 15.6 25.2 15.7 15.2 16.4 16.6 22.1 15.2
5.0 4.5 5.2 5.1 4.9 3.7 6.0 8.1 6.4 7.8 12.3 10.0 11.1 13.5 6.8 9.9 12.7 5.0 4.4 6.2 6.4 15.6 13.4 8.7 9.6 6.2 6.6 13.2 13.5 15.1 13.7 15.3 15.8 17.4 9.1 9.0 23.3 18.7 14.9 22.2 14.4 17.7 18.2 15.5
3.5 4.4 4.2 4.2 4.3 5.4 3.7 4.7 4.8 6.4 5.8 5.8 5.7 5.0 3.3 4.2 9.1 6.7 7.7 7.4 7.2 6.2 9.1 7.1 6.8 7.4 17.1 18.1 16.9 16.6 17.1 15.7 16.9 19.3 14.8 20.6 18.0 25.8 22.5 17.9 22.1 22.4 23.0 19.6
2.6 3.6 4.1 4.1 3.6 3.2 3.2 3.7 4.3 6.1 5.4 10.0 7.4 14.2 11.9 7.8 7.1 6.7 8.3 7.9 6.3 6.8 6.3 14.1 18.5 18.4 17.5 13.1 15.1 15.6 12.2 8.9 13.2 12.9 16.1 15.8 15.2 12.7 15.6 14.1 19.4 24.0 29.8 31.8
4.0 1.7 3.4 3.3 3.7 3.9 3.8 4.5 6.1 7.7 6.5 11.4 10.2 9.5 6.2 9.6 11.7 7.7 9.0 13.2 12.6 13.9 14.2 16.5 14.1 10.4 9.2 14.4 12.6 11.9 11.7 12.2 10.5 10.1 18.8 22.8 21.5 28.2 26.0 25.7 28.2 29.1 26.5 25.2

GFSNGP_prec_sndepth_141.txt.gz
Snowfall_Accumulation
0.0 0.0 0.0 0.0 0.1 0.1 2.0 0.3 1.4 0.1 0.1 0.0 0.1 0.2 0.1 0.1 0.0 0.0 0.0 0.1 0.5 1.8 3.3 3.3 2.0 1.2 0.3 0.1 0.0 0.0 0.0 0.0 0.0 0.0 0.0 0.0 0.0 0.0 0.0 0.0 0.0 0.0 0.0 0.0
0.0 0.0 0.0 0.0 0.1 0.2 0.1 0.1 0.0 0.0 0.0 0.1 0.1 0.1 0.0 0.0 0.0 0.0 0.0 0.1 0.3 0.8 1.4 2.0 1.7 1.1 0.3 0.4 0.1 0.1 0.1 0.0 0.0 0.0 0.0 0.0 0.0 0.0 0.0 0.0 0.0 0.0 0.0 0.0
0.0 0.0 0.0 1.7 0.3 0.1 3.1 0.1 0.2 1.5 0.3 0.1 0.1 0.1 0.1 0.1 0.0 0.0 0.0 0.1 0.3 0.6 1.0 0.7 0.4 0.2 0.3 0.2 0.0 0.1 0.4 0.2 0.0 0.0 0.0 0.0 0.0 0.0 0.0 0.0 0.0 0.0 0.0 0.0
0.3 0.1 2.3 0.5 0.0 0.0 0.1 0.2 0.1 0.1 0.4 0.2 0.1 0.1 0.3 0.0 0.0 0.0 0.0 0.0 0.0 0.0 0.1 0.1 0.1 0.1 0.1 0.0 0.0 0.0 0.0 0.0 0.4 0.1 0.0 0.0 0.0 0.0 0.0 0.0 0.0 0.0 0.0 0.0
1.4 0.3 0.0 0.2 0.0 0.0 0.1 0.2 0.0 0.2 0.3 0.1 0.0 0.1 0.2 0.0 0.0 0.0 0.0 0.0 0.0 0.0 0.0 0.0 0.0 0.0 0.0 0.0 0.0 0.0 0.0 0.0 0.0 0.0 0.0 0.2 0.0 0.0 0.0 0.0 0.0 0.0 0.0 0.0
0.5 0.4 2.2 0.2 0.0 0.0 0.0 0.9 0.0 0.2 0.1 0.2 0.0 0.4 0.4 0.0 0.0 0.0 0.0 0.0 0.0 0.0 0.0 0.0 0.0 0.0 0.0 0.0 0.0 0.0 0.0 0.0 0.0 0.0 0.0 0.0 0.0 0.0 0.0 0.0 0.0 0.0 0.1 0.1
0.5 0.9 0.9 0.0 0.0 0.0 0.9 0.5 0.0 0.2 0.1 0.1 2.9 0.6 0.2 0.1 0.0 0.0 0.0 0.0 0.0 0.0 0.0 0.0 0.0 0.0 0.0 0.0 0.0 0.0 0.0 0.0 0.0 0.0 0.0 0.0 0.0 0.0 0.0 0.0 0.1 0.1 0.1 0.2
0.7 0.7 1.1 0.0 0.0 0.1 0.2 0.0 0.0 0.1 0.1 0.1 0.1 0.1 0.1 0.0 0.0 0.0 0.0 0.0 0.0 0.0 0.0 0.0 0.0 0.0 0.0 0.0 0.0 0.0 0.0 0.0 0.0 0.0 0.0 0.0 0.0 0.0 0.0 0.0 0.0 0.1 0.2 0.9
0.4 1.2 0.1 0.0 0.0 0.0 0.0 0.0 0.1 0.1 0.0 0.0 0.2 0.1 0.1 0.0 0.0 0.0 0.0 0.0 0.0 0.0 0.0 0.0 0.0 0.0 0.0 0.0 0.0 0.0 0.0 0.0 0.0 0.0 0.1 0.3 0.3 0.2 0.3 0.1 0.9 2.0 3.0 3.1
0.1 0.1 0.0 0.0 0.0 0.0 0.0 0.0 0.0 0.0 0.0 0.0 0.2 0.2 0.1 0.0 0.0 0.0 0.0 0.0 0.0 0.0 0.0 0.0 0.0 0.0 0.0 0.0 0.0 0.0 0.0 0.0 0.0 0.1 0.1 0.2 1.0 1.2 1.7 2.1 2.4 4.6 5.3 7.9
0.1 0.0 0.0 0.0 0.0 0.0 0.0 0.0 0.0 0.0 0.0 0.0 0.1 0.2 0.2 0.1 0.0 0.0 0.0 0.0 0.0 0.0 0.0 0.0 0.0 0.0 0.0 0.0 0.0 0.0 0.0 0.0 0.1 0.2 0.1 0.4 1.1 2.6 3.7 6.0 5.7 7.9 9.8 10.2
3.5 0.1 0.1 0.0 0.0 0.0 0.0 0.0 0.0 0.0 0.0 0.0 0.0 0.1 0.0 0.2 0.0 0.0 0.0 0.0 0.0 0.1 0.0 0.0 0.0 0.0 0.0 0.0 0.0 0.0 0.1 0.3 0.8 0.5 0.9 0.9 1.6 4.8 nan nan nan nan nan 9.1
2.0 0.1 0.1 0.1 0.0 0.0 0.1 0.1 0.1 0.5 0.1 0.1 0.2 0.1 0.1 0.0 0.3 nan 0.2 0.2 0.2 0.5 0.3 0.2 0.1 0.2 0.1 0.1 0.1 0.2 0.3 0.2 1.5 1.1 1.8 2.2 2.7 4.1 8.2 10.8 nan nan nan nan
0.1 0.2 1.0 0.5 2.7 0.2 0.1 0.1 0.1 0.0 0.0 0.1 0.1 0.1 0.1 0.3 0.5 2.4 5.1 4.4 5.0 4.3 4.9 4.3 2.9 4.3 3.0 1.2 1.2 1.8 1.5 0.5 2.9 4.1 4.7 5.4 5.4 6.0 5.3 6.3 9.7 11.4 nan nan
0.0 0.0 0.1 0.1 0.1 0.1 0.0 0.0 0.0 0.0 0.0 0.0 0.0 0.1 0.0 0.1 0.2 0.5 2.1 6.3 8.3 9.4 10.1 8.9 8.6 10.5 7.8 6.3 5.8 5.3 4.7 6.8 6.3 5.9 5.8 5.3 5.3 5.4 5.2 5.7 6.3 6.7 4.6 2.8
0.0 0.0 0.0 0.0 0.0 0.0 0.0 0.0 0.0 0.0 0.0 0.0 0.0 0.1 0.2 0.1 0.1 0.1 0.1 0.1 2.1 5.4 8.3 12.5 11.5 14.4 11.5 7.4 7.1 5.6 5.0 2.0 2.3 3.1 3.3 3.8 4.2 4.2 3.7 3.5 3.4 3.9 4.6 5.6
0.0 0.0 0.0 0.0 0.0 0.0 0.0 0.0 0.0 0.0 0.0 0.1 0.1 0.0 0.1 0.2 0.3 0.9 2.8 4.2 6.2 8.6 10.2 10.1 14.1 10.6 9.1 5.1 3.1 3.8 3.3 2.2 0.2 1.9 2.1 2.3 2.7 3.0 3.0 4.5 5.2 4.5 7.8 10.7
0.0 0.0 0.0 0.0 0.0 0.0 0.0 0.0 0.0 0.0 0.1 0.2 1.1 4.8 7.5 7.0 6.6 9.5 11.5 11.0 10.5 11.1 8.7 7.5 4.9 3.1 2.5 0.9 0.4 1.2 1.7 1.5 1.5 2.3 2.2 3.5 2.5 1.9 3.2 3.3 2.7 3.3 4.6 4.0
0.0 0.0 0.0 0.0 0.0 0.0 0.1 0.3 0.5 1.5 5.1 4.9 6.8 7.0 7.2 7.7 4.7 5.2 6.2 9.7 10.1 3.3 6.3 1.7 0.3 0.3 0.5 0.7 0.4 1.3 2.1 3.3 2.0 1.5 2.0 5.6 6.0 2.4 5.0 6.7 5.6 7.0 3.6 4.9
0.0 0.0 0.0 0.1 0.1 0.3 1.9 2.6 2.7 3.0 3.5 3.1 7.7 8.6 7.0 10.6 9.8 10.7 6.6 6.9 6.2 5.7 0.8 0.6 0.6 0.6 0.7 0.5 1.4 1.5 2.3 4.4 2.8 5.1 6.7 3.6 8.7 13.0 9.2 7.0 5.4 7.8 14.7 11.6
0.9 0.4 0.6 1.3 2.3 3.1 4.2 4.4 3.0 1.8 4.5 7.4 8.7 11.1 11.0 9.6 9.4 10.6 5.7 2.7 3.8 1.1 0.5 0.4 1.1 1.6 1.0 1.1 1.0 2.9 5.6 8.7 9.3 6.3 6.3 12.5 15.8 11.2 12.9 14.6 13.1 15.6 18.1 14.3
3.9 4.4 5.7 4.4 3.2 4.8 4.5 4.0 2.6 6.2 7.2 11.1 16.0 17.0 12.8 8.2 9.0 8.6 9.6 4.7 4.0 2.4 2.1 2.2 1.8 3.6 2.9 4.8 2.2 7.8 3.7 4.2 6.7 7.0 7.6 11.3 12.5 18.7 19.9 17.2 17.0 18.7 18.3 18.9
4.6 3.9 5.9 6.9 6.9 6.7 7.0 7.4 11.0 9.7 13.6 13.0 14.6 11.3 7.6 6.9 6.5 6.5 7.0 2.5 2.7 4.3 2.6 4.6 5.2 5.5 5.9 9.5 9.6 11.4 11.2 11.1 11.1 10.2 11.0 16.6 15.5 25.1 15.6 15.1 16.3 16.5 22.0 15.1
4.8 4.4 5.1 5.0 4.8 3.6 5.9 7.9 6.3 7.6 12.2 9.9 11.0 13.4 6.6 9.6 12.6 4.9 4.1 6.2 6.4 15.6 13.4 8.6 9.5 6.3 6.6 13.1 13.5 15.0 13.7 15.3 15.8 17.4 9.2 9.0 23.3 18.7 14.8 22.1 14.3 17.6 18.1 15.4
3.4 4.3 4.1 4.1 4.2 4.6 3.6 4.5 4.7 6.3 5.6 5.2 5.6 4.8 2.7 4.0 9.0 6.6 7.6 7.4 7.2 6.2 9.1 7.1 6.8 7.4 17.1 18.1 16.9 16.6 17.0 15.6 16.8 19.3 14.8 20.5 18.0 25.7 22.4 17.8 22.0 22.2 22.9 19.5
2.2 2.9 3.3 3.4 2.7 2.6 2.6 3.1 3.7 5.7 4.6 9.8 7.2 13.6 11.4 7.1 6.6 6.1 7.8 7.9 6.0 6.7 6.3 14.1 18.4 18.4 17.5 13.1 15.1 15.5 12.2 8.8 13.2 12.8 16.0 15.8 15.2 12.7 15.5 14.1 19.3 23.9 29.6 31.6
3.3 1.5 2.8 2.7 2.9 3.1 3.0 3.6 5.9 7.6 6.3 10.5 10.1 8.9 5.5 8.8 11.0 7.4 8.9 13.0 12.6 13.8 14.2 16.5 14.1 10.3 9.1 14.4 12.6 11.9 11.7 12.2 10.5 10.1 18.8 22.7 21.4 28.0 25.9 25.5 28.1 29.0 26.4 25.1